Regional Weather Roundup
Issued by NWS

Home | Current Version | Previous Version | Graphics & Text | Print | Product List | Glossary On
Versions: 1 2 3 4 5 6 7 8 9 10 11 12 13 14 15 16 17 18 19 20 21 22 23 24 25 26 27 28 29 30 31 32 33 34 35 36 37 38 39 40 41 42 43 44 45 46 47 48 49 50
307
ASUS45 KCYS 090110
RWRWY

WYOMING REGIONAL WEATHER ROUNDUP
NATIONAL WEATHER SERVICE CHEYENNE WY
600 PM MST THU DEC 08 2016

NOTE:  "FAIR" INDICATES FEW OR NO CLOUDS BELOW 12,000 FEET
WITH NO SIGNIFICANT WEATHER AND/OR OBSTRUCTIONS TO VISIBILITY.

WYZ001-090200-
YELLOWSTONE NATIONAL PARK

CITY           SKY/WX    TMP DP  RH WIND       PRES   REMARKS
LK YELLOWSTONE   N/A      0  -3  87 W3        30.01F
W YELLOWSTONE  NOT AVBL

$$
WYZ002>013-054>058-071-098>099-090200-
NORTHERN WYOMING

CITY           SKY/WX    TMP DP  RH WIND       PRES   REMARKS
JACKSON        LGT SNOW   1   0  92 CALM      30.11S
CODY           FAIR      -5 -10  79 S5        30.17F WCI -16
GREYBULL       FAIR       7  -1  70 W6        30.26S WCI  -3
WORLAND        FAIR       4   0  83 NE3       30.23F
SHERIDAN       FAIR      -3  -9  75 CALM      30.30F
BUFFALO        FAIR       1  -6  72 SE7       30.21F WCI -12
GILLETTE       FAIR      -4  -8  83 CALM      30.29F
HULETT         FAIR       0  -8  71 E6        30.33F WCI -12
NEWCASTLE      FAIR       3  -6  66 E7        30.34F WCI  -9

$$
WYZ014>020-022>026-101>103-090200-
CENTRAL WYOMING

CITY           SKY/WX    TMP DP  RH WIND       PRES   REMARKS
BIG PINEY      LGT SNOW   8   4  83 CALM      30.12F FOG
PINEDALE       LGT SNOW   9   3  78 NW8       30.13S WCI  -4
DUBOIS         CLOUDY     5   0  78 S10       29.99F WCI -10
LANDER         FAIR       7  -2  66 CALM      30.12F
RIVERTON       FAIR       7  -1  70 CALM      30.14F
CASPER         FAIR      -9 -12  87 CALM      30.19F
DOUGLAS        FAIR       2  -6  69 MISG      30.24F

$$
WYZ021-027>030-104>119-090200-
SOUTHERN WYOMING

CITY           SKY/WX    TMP DP  RH WIND       PRES   REMARKS
EVANSTON       LGT SNOW  10   4  76 E7        30.07S WCI  -1
FORT BRIDGER   LGT SNOW   7   3  86 CALM      30.13F
ROCK SPRINGS   LGT SNOW   9   6  88 NW5       30.12S FOG     WCI   1
DIXON          LGT SNOW  21  16  83 SE3       30.18F
RAWLINS        CLOUDY    19   9  65 SW10      30.12S WCI   7
SARATOGA       CLOUDY    21  10  63 SE7       30.11F WCI  13
LARAMIE        CLOUDY    16   4  59 W10       30.08F WCI   4
CHEYENNE       FAIR       3   0  87 S10       30.19F WCI -12
TORRINGTON     FAIR       7  -2  66 E10       30.32F WCI  -8
PINE BLUFFS    FAIR       1  -4  78 MISG      30.29F

$$




USA.gov is the U.S. government's official web portal to all federal, state and local government web resources and services.